Hourly Data Report for September 10, 2017

All times are specified in Local Standard Time (LST). Add 1 hour to adjust for Daylight Saving Time where and when it is observed.

FREDERICTON
NEW BRUNSWICK

45°52'08.000" N
66°32'14.000" W
20.70 m
8101505
71700
YFC

Related Data

No related data is available for this station

Download Data

Hourly Data (September 2017)
Hourly Data Report for September 10, 2017
Temp Definition
°C
Dew Point Temp Definition
°C
Rel Hum Definition
%
Wind Dir Definition
10's deg

Wind Spd Definition
km/h
Visibility Definition
km
Stn Press Definition
kPa
Hmdx Definition


Wind Chill Definition


Weather Definition


TIME
00:00 Legend Double Dagger 11.2 10.4 95 2 9 16.1 102.18     LegendNANA
01:00 Legend Double Dagger 11.4 10.8 96 3 17 16.1 102.18     LegendNANA
02:00 Legend Double Dagger 11.9 11.3 96 1 11 16.1 102.20     LegendNANA
03:00 Legend Double Dagger 12.2 10.6 90 36 9 16.1 102.18     LegendNANA
04:00 Legend Double Dagger 12.0 10.3 89 35 13 16.1 102.19     LegendNANA
05:00 Legend Double Dagger 10.4 9.3 93 35 11 16.1 102.25     LegendNANA
06:00 Legend Double Dagger 9.2 8.6 96 34 8 16.1 102.30     LegendNANA
07:00 Legend Double Dagger 10.9 9.7 92 34 11 16.1 102.33     LegendNANA
08:00 Legend Double Dagger 12.2 10.0 86 32 9 16.1 102.32     LegendNANA
09:00 Legend Double Dagger 13.8 10.2 79 31 11 16.1 102.32     LegendNANA
10:00 Legend Double Dagger 15.9 10.5 70 34 8 16.1 102.30     LegendNANA
11:00 Legend Double Dagger 18.0 9.9 59 LegendMM 9 16.1 102.22     LegendNANA
12:00 Legend Double Dagger 19.4 11.9 61 2 9 16.1 102.12     LegendNANA
13:00 Legend Double Dagger 20.7 9.4 48 34 13 16.1 102.05     LegendNANA
14:00 Legend Double Dagger 18.5 11.8 65 35 22 16.1 102.00     Rain
15:00 Legend Double Dagger 18.3 11.5 64   0 16.1 101.94     LegendNANA
16:00 Legend Double Dagger 18.7 7.8 49 31 21 16.1 101.92     LegendNANA
17:00 Legend Double Dagger 17.6 8.3 54 31 17 16.1 101.93     LegendNANA
18:00 Legend Double Dagger 16.4 7.9 57 30 15 16.1 101.95     LegendNANA
19:00 Legend Double Dagger 15.4 9.4 67 31 21 16.1 101.97     LegendNANA
20:00 Legend Double Dagger 14.7 9.4 70 30 11 16.1 102.00     LegendNANA
21:00 Legend Double Dagger 14.2 8.6 69 30 17 16.1 101.96     LegendNANA
22:00 Legend Double Dagger 13.6 8.5 71 30 9 16.1 101.93     LegendNANA
23:00 Legend Double Dagger 13.6 8.2 69 30 15 16.1 101.90     LegendNANA

Notes on Data Quality.

Legend

  • E = Estimated
  • M = Missing
  • NA = Not Available
  • ‡ = Partner data that is not subject to review by the National Climate Archives
Date modified: